Date String (YYYY-MM-DD hh:mm:ss) UTC,Instrument flags,Ambient pressure (hPa),Sample flow (lpm),Bypass flow (lpm),Sample temperature (°C),Ambient temperature (°C),ASC tube jacket temperature (°C),LED temperature (°C),Box temperature (°C),Sample RH (%),Span deviation,Mass concentration (μg/m³),Mass concentration (μg/m³),Mass concentration (μg/m³)
DateTimeUTC,F1_M11,P_M11,Q1_M11,Q2_M11,T1_M11,T2_M11,T3_M11,T4_M11,T5_M11,U1_M11,ZSPAN_M11,X0_M11,X2_M11,X1_M11
2021-09-08 00:00:00,,0831.5,5.00,0.00,29.1,25.8,00.0,38.2,30.5,17.5,0001.2,0071.56,0043.72,0039.92
2021-09-08 00:01:00,,0831.5,4.99,0.00,29.0,26.2,00.0,38.1,30.6,17.8,0001.5,0072.49,0043.86,0040.06
2021-09-08 00:02:00,,0831.5,5.01,0.00,29.0,26.7,00.0,38.1,30.7,18.0,0001.8,0070.48,0043.94,0040.19
2021-09-08 00:03:00,,0831.6,5.00,0.00,29.1,27.2,00.0,38.1,30.9,17.8,0002.2,0070.89,0044.02,0040.29
2021-09-08 00:04:00,,0831.6,5.01,0.00,29.1,27.6,00.0,38.1,31.0,17.7,0002.1,0071.62,0044.11,0040.38
2021-09-08 00:05:00,,0831.6,5.01,0.00,29.2,27.9,00.0,38.1,31.1,17.5,0002.3,0070.70,0044.15,0040.41
2021-09-08 00:06:00,,0831.6,5.00,0.00,29.2,28.2,00.0,38.1,31.2,17.7,0002.0,0069.39,0043.97,0040.35
2021-09-08 00:07:00,,0831.6,4.99,0.00,29.3,28.4,00.0,38.2,31.2,17.9,0002.0,0068.39,0043.84,0040.33
2021-09-08 00:08:00,,0831.5,5.01,0.00,29.4,28.6,00.0,38.2,31.3,17.6,0002.1,0066.74,0043.77,0040.29
2021-09-08 00:09:00,,0831.5,5.00,0.00,29.4,27.9,00.0,38.2,31.1,17.4,0002.1,0067.36,0043.75,0040.25
2021-09-08 00:10:00,,0831.5,4.99,0.00,29.2,26.0,00.0,38.2,30.6,17.4,0002.0,0066.54,0043.75,0040.29
2021-09-08 00:11:00,,0831.5,5.00,0.00,29.1,25.7,00.0,38.2,30.4,17.9,0002.1,0067.59,0043.74,0040.30
2021-09-08 00:12:00,,0831.5,4.99,0.00,29.1,26.1,00.0,38.2,30.6,18.0,0001.7,0066.67,0043.75,0040.30
2021-09-08 00:13:00,,0831.5,5.01,0.00,29.0,26.5,00.0,38.1,30.7,18.1,0001.3,0067.88,0043.71,0040.29
2021-09-08 00:14:00,,0831.6,4.99,0.00,29.0,27.0,00.0,38.1,30.8,18.2,0001.2,0067.45,0043.63,0040.23
2021-09-08 00:15:00,,0831.5,4.99,0.00,29.1,27.5,00.0,38.1,30.9,18.3,0001.4,0067.37,0043.54,0040.19
2021-09-08 00:16:00,,0831.5,5.00,0.00,29.1,27.8,00.0,38.2,31.0,18.3,0001.4,0067.49,0043.50,0040.10
2021-09-08 00:17:00,,0831.5,5.00,0.00,29.2,28.1,00.0,38.2,31.1,18.2,0001.7,0068.13,0043.52,0040.07
2021-09-08 00:18:00,,0831.5,5.01,0.00,29.3,28.3,00.0,38.2,31.2,18.1,0002.0,0069.43,0043.53,0040.10
2021-09-08 00:19:00,,0831.6,5.00,0.00,29.3,28.6,00.0,38.2,31.3,18.3,0002.0,0069.65,0043.55,0040.12
2021-09-08 00:20:00,,0831.5,5.00,0.00,29.4,28.2,00.0,38.2,31.2,18.3,0002.0,0068.56,0043.46,0040.09
2021-09-08 00:21:00,,0831.5,5.00,0.00,29.3,26.3,00.0,38.2,30.7,18.3,0002.0,0068.72,0043.47,0040.06
2021-09-08 00:22:00,,0831.5,5.00,0.00,29.1,25.6,00.0,38.2,30.4,18.7,0002.0,0067.71,0043.44,0040.06
2021-09-08 00:23:00,,0831.5,5.01,0.00,29.1,26.0,00.0,38.2,30.5,18.7,0002.2,0068.17,0043.46,0040.06
2021-09-08 00:24:00,,0831.5,5.00,0.00,29.0,26.4,00.0,38.2,30.7,18.7,0002.5,0067.09,0043.51,0040.03
2021-09-08 00:25:00,,0831.5,5.00,0.00,29.0,26.9,00.0,38.2,30.8,18.8,0002.7,0067.97,0043.52,0039.97
2021-09-08 00:26:00,,0831.5,4.99,0.00,29.1,27.4,00.0,38.2,30.9,18.8,0002.6,0069.66,0043.54,0039.93
2021-09-08 00:27:00,,0831.5,5.00,0.00,29.1,27.7,00.0,38.2,31.0,18.6,0002.7,0070.33,0043.52,0039.93
2021-09-08 00:28:00,,0831.6,5.01,0.00,29.2,28.0,00.0,38.2,31.1,18.2,0002.3,0069.81,0043.48,0039.90
2021-09-08 00:29:00,,0831.6,4.98,0.00,29.3,28.3,00.0,38.2,31.2,18.1,0002.1,0069.17,0043.36,0039.80
2021-09-08 00:30:00,,0831.6,5.00,0.00,29.3,28.5,00.0,38.2,31.3,18.0,0001.9,0068.63,0043.17,0039.68
2021-09-08 00:31:00,,0831.6,5.01,0.00,29.4,28.4,00.0,38.2,31.3,18.2,0001.8,0068.62,0043.09,0039.59
2021-09-08 00:32:00,,0831.6,5.00,0.00,29.3,26.6,00.0,38.2,30.8,18.0,0001.5,0067.82,0042.91,0039.50
2021-09-08 00:33:00,,0831.6,4.99,0.00,29.1,25.5,00.0,38.2,30.4,18.2,0001.7,0067.73,0042.88,0039.44
2021-09-08 00:34:00,,0831.5,5.02,0.00,29.1,25.8,00.0,38.2,30.5,18.3,0001.7,0068.96,0042.72,0039.29
2021-09-08 00:35:00,,0831.6,4.99,0.00,29.0,26.3,00.0,38.2,30.6,18.2,0001.6,0069.88,0042.61,0039.25
2021-09-08 00:36:00,,0831.6,5.00,0.00,29.0,26.8,00.0,38.1,30.7,18.2,0001.6,0069.34,0042.50,0039.21
2021-09-08 00:37:00,,0831.6,4.99,0.00,29.1,27.2,00.0,38.1,30.8,18.0,0001.8,0068.20,0042.50,0039.17
2021-09-08 00:38:00,,0831.7,5.01,0.00,29.1,27.6,00.0,38.2,31.0,17.9,0001.8,0067.89,0042.42,0039.10
2021-09-08 00:39:00,,0831.7,5.01,0.00,29.2,27.9,00.0,38.2,31.1,17.7,0001.6,0067.75,0042.34,0039.00
2021-09-08 00:40:00,,0831.7,4.99,0.00,29.2,28.2,00.0,38.2,31.2,17.7,0001.8,0068.08,0042.43,0038.97
2021-09-08 00:41:00,,0831.6,5.00,0.00,29.3,28.4,00.0,38.2,31.2,17.7,0001.9,0068.28,0042.45,0038.95
2021-09-08 00:42:00,,0831.7,4.99,0.00,29.4,28.6,00.0,38.2,31.3,17.7,0002.1,0068.11,0042.39,0038.91
2021-09-08 00:43:00,,0831.7,5.01,0.00,29.4,28.1,00.0,38.3,31.2,17.7,0002.3,0068.91,0042.46,0038.86
2021-09-08 00:44:00,,0831.6,5.00,0.00,29.3,26.1,00.0,38.2,30.6,17.9,0002.3,0069.14,0042.41,0038.81
2021-09-08 00:45:00,,0831.6,5.00,0.00,29.1,25.5,00.0,38.2,30.4,18.1,0002.3,0068.54,0042.39,0038.81
2021-09-08 00:46:00,,0831.6,5.00,0.00,29.0,25.9,00.0,38.2,30.5,18.2,0002.2,0068.24,0042.39,0038.78
2021-09-08 00:47:00,,0831.6,5.00,0.00,29.0,26.4,00.0,38.2,30.6,18.3,0002.0,0068.19,0042.42,0038.77
2021-09-08 00:48:00,,0831.6,5.00,0.00,29.0,26.9,00.0,38.2,30.7,18.3,0001.8,0066.88,0042.32,0038.75
2021-09-08 00:49:00,,0831.6,4.99,0.00,29.1,27.3,00.0,38.1,30.9,18.3,0001.8,0065.48,0042.23,0038.75
2021-09-08 00:50:00,,0831.6,5.00,0.00,29.1,27.7,00.0,38.2,31.0,18.2,0002.1,0066.33,0042.18,0038.76
2021-09-08 00:51:00,,0831.6,5.01,0.00,29.2,28.0,00.0,38.2,31.1,18.0,0001.9,0066.80,0042.12,0038.77
2021-09-08 00:52:00,,0831.6,5.00,0.00,29.2,28.2,00.0,38.2,31.2,17.8,0001.8,0066.83,0042.05,0038.69
2021-09-08 00:53:00,,0831.5,5.01,0.00,29.3,28.4,00.0,38.2,31.2,17.8,0001.6,0068.40,0042.03,0038.64
2021-09-08 00:54:00,,0831.6,5.00,0.00,29.4,28.6,00.0,38.3,31.3,17.8,0001.5,0067.98,0041.87,0038.58
2021-09-08 00:55:00,,0831.6,5.00,0.00,29.4,28.5,00.0,38.3,31.3,17.7,0001.3,0068.96,0041.75,0038.48
2021-09-08 00:56:00,,0831.6,5.00,0.00,29.3,26.7,00.0,38.3,30.9,17.8,0001.2,0068.90,0041.75,0038.39
2021-09-08 00:57:00,,0831.6,4.99,0.00,29.2,25.5,00.0,38.3,30.5,18.0,0001.4,0068.63,0041.64,0038.30
2021-09-08 00:58:00,,0831.6,5.01,0.00,29.1,25.8,00.0,38.2,30.6,18.0,0001.5,0068.50,0041.58,0038.22
2021-09-08 00:59:00,,0831.7,5.00,0.00,29.1,26.2,00.0,38.2,30.7,18.0,0001.5,0068.98,0041.56,0038.17
